Change the Weather History Date:

Wednesday, November 19, 2014

  Actual Average Record
Temperature  
Mean Temperature 42 °F -  
Max Temperature 62 °F 58 °F 82 °F (2007)
Min Temperature 21 °F 36 °F 21 °F (2014)
Degree Days  
Heating Degree Days 24    
Moisture  
Dew Point 27 °F    
Average Humidity 65    
Maximum Humidity 100    
Minimum Humidity 26    
Precipitation  
Precipitation 0.00 in - - ()
Sea Level Pressure  
Sea Level Pressure 30.15 in    
Wind  
Wind Speed 6 mph (East)    
Max Wind Speed 10 mph    
Max Gust Speed -    
Visibility 10 miles    
Events      
Averages and records for this station are not official NWS values.
T = Trace of Precipitation, MM = Missing Value Source: NWS Daily Summary

Daily Weather History Graph

Daily Weather History Graph

Search for Another Location

Airport or City:

Trip Planner

Search our weather history database for the weather conditions in past years. The results will help you decide how hot, cold, wet, or windy it might be!

Date:

Astronomy

Nov. 19, 2014 Rise Set
Actual Time 7:14 AM CST 5:29 PM CST
Civil Twilight 6:47 AM CST 5:56 PM CST
Nautical Twilight 6:17 AM CST 6:27 PM CST
Astronomical Twilight 5:47 AM CST 6:57 PM CST
Moon 4:19 AM CST (11/19) 3:52 PM CST (11/19)
Length of Visible Light 11h 09m
Length of Day
10h 15m
Waning Crescent, 8% of the Moon is Illuminated
Nov 19
Waning Crescent
Nov 22
New
Nov 29
First Quarter
Dec 6
Full
Dec 14
Last Quarter

Hourly Weather History & Observations

Time (CST) Temp. Windchill Dew Point Humidity Pressure Visibility Wind Dir Wind Speed Gust Speed Precip Events Conditions
12:58 AM 32.0 °F 23.6 °F 24.8 °F 75% 30.14 in 10.0 mi South 10.4 mph - N/A   Clear
1:58 AM 32.0 °F 26.4 °F 24.8 °F 75% 30.14 in 10.0 mi SSW 5.8 mph - N/A   Clear
2:58 AM 32.0 °F 24.8 °F 26.6 °F 80% 30.11 in 10.0 mi South 8.1 mph - N/A   Clear
3:58 AM 32.0 °F 27.5 °F 24.8 °F 75% 30.10 in 10.0 mi SSE 4.6 mph - N/A   Clear
4:58 AM 28.4 °F 24.6 °F 24.8 °F 86% 30.11 in 10.0 mi SE 3.5 mph - N/A   Clear
5:58 AM 26.6 °F - 21.2 °F 80% 30.12 in 10.0 mi ESE 2.3 mph - N/A   Clear
6:58 AM 23.0 °F - 21.2 °F 93% 30.15 in 10.0 mi East 1.2 mph - N/A   Clear
7:58 AM 21.2 °F 13.6 °F 21.2 °F 100% 30.17 in 10.0 mi NNW 5.8 mph - N/A   Clear
8:58 AM 26.6 °F - 24.8 °F 93% 30.18 in 10.0 mi SSE 1.2 mph - N/A   Clear
9:58 AM 41.0 °F 37.1 °F 28.4 °F 61% 30.19 in 10.0 mi NNE 5.8 mph - N/A   Clear
10:58 AM 48.2 °F - 28.4 °F 46% 30.21 in 10.0 mi NE 9.2 mph - N/A   Clear
11:58 AM 53.4 °F - 27.7 °F 37% 30.19 in 10.0 mi Variable 6.9 mph - N/A   Clear
12:58 PM 57.9 °F - 28.6 °F 33% 30.16 in 10.0 mi ENE 6.9 mph - N/A   Clear
1:58 PM 60.4 °F - 27.7 °F 29% 30.14 in 10.0 mi East 6.9 mph - N/A   Clear
2:58 PM 62.2 °F - 26.4 °F 26% 30.14 in 10.0 mi North 4.6 mph - N/A   Clear
3:58 PM 60.8 °F - 28.0 °F 29% 30.13 in 10.0 mi SSE 4.6 mph - N/A   Clear
4:58 PM 57.2 °F - 29.1 °F 34% 30.14 in 10.0 mi ESE 3.5 mph - N/A   Clear
5:58 PM 48.0 °F - 30.2 °F 50% 30.15 in 10.0 mi ESE 5.8 mph - N/A   Clear
6:58 PM 44.1 °F - 30.2 °F 58% 30.17 in 10.0 mi Calm Calm - N/A   Clear
7:58 PM 41.7 °F - 30.2 °F 64% 30.19 in 10.0 mi Calm Calm - N/A   Clear
8:58 PM 36.7 °F 32.0 °F 29.3 °F 75% 30.17 in 10.0 mi ENE 5.8 mph - N/A   Clear
9:58 PM 34.7 °F 28.8 °F 30.4 °F 84% 30.17 in 10.0 mi ENE 6.9 mph - N/A   Clear
10:58 PM 35.2 °F 28.1 °F 30.6 °F 83% 30.14 in 10.0 mi NNE 9.2 mph - N/A   Clear
11:58 PM 33.4 °F 27.3 °F 29.1 °F 84% 30.14 in 10.0 mi NE 6.9 mph - N/A   Clear